This demonstration page uses our WeatherBlox Daily Observations layout. Learn more.

Left ArrowRight Arrow

41.55636, -103.73856

Hourly Observations for August 13, 2022

Temp ( °F °C ) Dew Point ( °F °C ) Humidity (%) Winds ( mph kmh ) Pressure ( in mb ) Visibility ( mi km ) Precip ( " mm )
12:58 am 00:58 Mostly Cloudy 71 21.6 56 13.5 60 60 NNE 17 28 30.02 1017 10 16 0.00 0.00
1:58 am 01:58 Clear 67 19.4 57 14 71 71 N 17 28 30.04 1017 10 16 0.00 0.00
2:58 am 02:58 Partly Cloudy 67 19.7 56 13.2 66 66 NNE 8 13 30.04 1017 10 16 0.00 0.00
3:58 am 03:58 Partly Cloudy 67 19.4 55 12.9 66 66 NNE 12 19 30.04 1017 10 16 0.00 0.00
4:58 am 04:58 Partly Cloudy 67 19.2 55 12.7 66 66 WNW 7 11 30.03 1017 10 16 0.00 0.00
5:58 am 05:58 Partly Cloudy 64 17.6 57 14.1 80 80 Calm 30.01 1016 10 16 0.00 0.00
6:58 am 06:58 Mostly Sunny 68 19.8 54 12.3 62 62 SE 12 19 29.96 1015 10 16 0.00 0.00
7:58 am 07:58 Cloudy 76 24.2 51 10.8 43 43 SE 14 22 29.97 1015 10 16 0.00 0.00
8:58 am 08:58 Sunny 74 23.1 54 12.1 50 50 N 7 11 30.03 1017 10 16 0.00 0.00
9:58 am 09:58 Mostly Cloudy 76 24.6 54 12.2 46 46 N 12 19 30.03 1017 10 16 0.00 0.00
10:58 am 10:58 Partly Cloudy 80 26.9 53 11.8 39 39 NNE 7 11 30.01 1016 10 16 0.00 0.00
11:58 am 11:58 Mostly Sunny 84 28.9 53 11.9 35 35 E 13 20 30.00 1016 10 16 0.00 0.00
12:58 pm 12:58 Sunny 87 30.7 50 10.1 28 28 ESE 13 20 29.97 1015 10 16 0.00 0.00
1:58 pm 13:58 Sunny 92 33.1 50 9.8 24 24 SE 14 22 29.94 1014 10 16 0.00 0.00
2:58 pm 14:58 Sunny 94 34.3 45 7.3 19 19 ESE 10 17 29.91 1013 10 16 0.00 0.00
3:58 pm 15:58 Partly Cloudy 93 33.9 43 6.2 18 18 S 15 24 29.88 1012 10 16 0.00 0.00
4:58 pm 16:58 Mostly Sunny 94 34.7 41 5.2 16 16 S 10 17 29.87 1012 10 16 0.00 0.00
5:58 pm 17:58 Mostly Sunny 92 33.5 43 5.9 18 18 S 10 17 29.87 1012 10 16 0.00 0.00
6:58 pm 18:58 Mostly Cloudy 90 32.2 45 7.1 21 21 S 10 17 29.87 1012 10 16 0.00 0.00
7:58 pm 19:58 Cloudy 86 30.2 46 8 25 25 SSE 10 17 29.86 1011 10 16 0.00 0.00
8:58 pm 20:58 Cloudy 78 25.3 55 12.5 45 45 SW 25 41 29.93 1013 10 16 0.02 0.51
9:58 pm 21:58 Cloudy 73 23 59 14.8 60 60 Calm 29.95 1014 10 16 0.01 0.25
10:58 pm 22:58 Cloudy with Light Rain 71 21.7 59 14.8 65 65 SSE 9 15 29.94 1014 10 16 0.01 0.13
11:58 pm 23:58 Mostly Cloudy 71 21.4 59 15.2 68 68 NNE 5 7 29.94 1014 10 16 0.00 0.00

Powered by AerisWeather